Location: Hamayl? Da??
(36.7028°N, 30.1716°E)
Time: 11:40:44
(UTC+00:00)

Cosmos 2056 Rocket - Pass Details

Date: 04 August 2024
Orbit: 740 x 797 km, 74.0° (Epoch: 11 September)

Event Time Altitude Azimuth Distance (km) Brightness Sun altitude
Rises 17:35:29 0° 166° (SSE) 3,225 6.3 -6.9°
Reaches altitude 10° 17:38:12 10° 154° (SSE) 2,293 5.5 -7.3°
Maximum altitude 17:42:25 26° 99° (E) 1,474 4.5 -8.1°
Drops below altitude 10° 17:46:37 10° 44° (NE) 2,277 5.8 -8.8°
Sets 17:49:17 0° 32° (NNE) 3,197 6.7 -9.3°
